Date,TemperatureHighF,TemperatureAvgF,TemperatureLowF,DewpointHighF,DewpointAvgF,DewpointLowF,HumidityHigh,HumidityAvg,HumidityLow,PressureMaxIn,PressureMinIn,WindSpeedMaxMPH,WindSpeedAvgMPH,GustSpeedMaxMPH,PrecipitationSumIn
2013-1-1,27.3,8.6,-3.5,10.5,0.4,-7.2,85,70,43,29.75,29.62,4,1,8,0.00
2013-1-2,32.4,18.0,1.8,25.3,12.5,-1.4,96,80,55,29.63,29.48,2,0,8,0.00
2013-1-3,27.9,18.6,9.5,27.9,14.5,6.2,100,84,64,29.80,29.56,6,1,12,0.00
2013-1-4,38.7,23.0,9.9,25.9,17.5,7.1,97,81,57,29.73,29.62,4,1,13,0.00
2013-1-5,41.0,26.2,11.1,35.5,24.1,10.0,100,92,72,29.64,29.40,3,1,11,0.00
2013-1-6,33.1,19.4,12.6,20.8,14.8,10.7,100,83,57,29.75,29.46,5,1,13,0.00
2013-1-7,45.9,30.2,14.0,31.3,23.9,13.2,100,79,56,29.71,29.48,4,1,14,0.00
2013-1-8,43.3,33.3,18.7,34.4,29.2,18.0,100,86,69,29.51,29.37,5,2,11,0.00
2013-1-9,46.9,34.6,23.2,35.4,30.5,22.8,99,86,62,29.91,29.48,3,1,11,0.00
2013-1-10,43.5,32.4,22.1,35.5,30.0,21.9,100,91,62,29.90,29.23,5,1,12,0.17
2013-1-11,52.7,43.4,35.2,50.5,43.0,35.0,100,98,89,29.24,29.01,5,2,14,0.05
2013-1-12,52.9,35.6,25.0,49.6,29.6,15.5,96,79,55,29.47,29.04,5,2,18,0.00
2013-1-13,19.9,12.9,9.9,8.6,6.4,3.2,82,75,55,29.75,29.45,8,2,16,0.00
2013-1-14,34.9,17.9,5.0,18.7,8.7,1.6,89,69,41,29.92,29.74,4,0,9,0.00
2013-1-15,39.4,22.3,11.3,20.0,12.5,7.6,91,68,38,29.86,29.54,3,1,11,0.00
2013-1-16,45.5,31.0,17.8,38.0,24.1,10.4,100,76,59,29.60,29.31,8,2,17,0.00
2013-1-17,36.0,24.4,15.6,26.0,15.4,9.7,94,71,39,29.88,29.59,6,2,14,0.00
2013-1-18,56.5,39.6,22.8,36.9,29.9,19.6,88,70,46,29.83,29.33,5,2,16,0.00
2013-1-19,55.8,39.4,15.1,38.4,30.1,3.7,86,70,49,29.63,29.25,13,3,34,0.00
2013-1-20,16.5,11.3,6.6,9.7,3.8,-1.0,80,71,58,29.83,29.63,9,3,21,0.00
2013-1-21,12.6,4.8,-2.2,4.8,-5.9,-13.0,78,62,40,29.81,29.69,9,3,18,0.00
2013-1-22,19.0,7.3,-3.6,1.4,-4.0,-10.0,78,60,42,29.87,29.77,6,1,14,0.00
2013-1-23,31.6,17.0,5.2,14.4,5.3,-6.0,70,60,48,29.93,29.59,10,3,25,0.00
2013-1-24,19.8,10.9,1.6,8.0,-3.6,-9.0,64,52,34,30.09,29.70,5,2,12,0.00
2013-1-25,38.7,24.5,10.9,21.0,11.5,2.8,69,58,40,29.73,29.48,9,3,20,0.00
2013-1-26,32.9,19.4,2.8,14.6,7.2,-1.2,83,61,39,29.84,29.70,5,2,9,0.00
2013-1-27,38.8,33.7,28.4,37.5,31.7,14.3,99,93,55,29.70,29.24,5,2,14,0.15
2013-1-28,45.7,37.8,33.3,45.4,37.5,33.0,99,99,99,29.41,29.12,4,1,10,0.05
2013-1-29,58.1,43.2,33.1,57.8,43.0,31.0,99,99,99,29.13,28.95,5,2,12,0.41
2013-1-30,34.3,23.5,12.4,33.0,23.3,12.2,100,99,99,29.24,28.84,2,0,10,0.00
2013-1-31,15.6,6.2,-3.6,14.2,1.5,-8.6,100,81,63,29.75,29.25,0,0,0,0.00
2013-2-1,17.4,4.4,-9.0,13.1,-2.7,-13.4,90,73,45,29.84,29.52,0,0,0,0.00
2013-2-2,23.9,17.4,12.6,21.2,13.0,7.7,100,83,65,29.60,29.44,0,0,0,0.00
2013-2-3,29.8,20.9,13.5,21.0,15.7,8.8,99,81,55,29.58,29.35,3,0,12,0.00
2013-2-4,29.7,21.4,9.5,21.2,17.2,7.3,97,84,66,29.45,29.25,3,1,15,0.00
2013-2-5,39.9,27.7,13.1,32.5,24.3,12.2,97,87,67,29.57,29.25,8,2,18,0.00
2013-2-6,42.4,29.1,10.6,36.9,26.2,10.2,100,90,65,29.62,29.44,4,1,11,0.00
2013-2-7,39.6,34.7,29.3,39.3,34.4,27.1,100,99,94,29.59,29.36,8,2,17,0.32
2013-2-8,31.6,28.7,27.0,29.7,27.1,25.6,100,94,83,29.82,29.59,5,2,17,0.00
2013-2-9,32.7,28.8,26.1,30.9,28.1,25.5,100,97,89,29.77,29.42,7,4,17,0.00
2013-2-10,46.8,37.7,30.0,46.5,36.9,29.8,100,97,82,29.42,28.79,9,3,14,0.47
2013-2-11,33.8,29.9,25.2,31.2,24.7,21.0,90,81,72,29.55,28.97,7,4,17,0.00
2013-2-12,43.7,31.7,23.5,29.0,24.5,18.9,100,76,52,29.58,29.33,4,1,8,0.00
2013-2-13,48.7,36.6,22.6,35.0,30.6,22.2,100,81,59,29.33,29.11,4,0,8,0.00
2013-2-14,47.1,35.3,23.4,33.9,29.8,14.2,100,81,55,29.55,29.11,9,4,21,0.00
2013-2-15,34.3,22.7,14.9,20.2,12.5,7.5,83,65,40,29.72,29.55,9,4,19,0.00
2013-2-16,30.6,17.1,9.0,16.8,10.5,3.8,90,75,55,29.72,29.60,6,1,14,0.00
2013-2-17,39.2,26.0,12.2,25.7,18.5,10.2,93,74,53,29.61,29.23,6,3,17,0.00
2013-2-18,55.9,33.4,14.4,40.6,28.5,7.5,100,83,54,29.26,29.00,10,4,23,0.04
2013-2-19,22.8,11.7,3.0,7.9,2.5,-3.8,79,67,49,29.77,29.26,10,4,21,0.00
2013-2-20,30.6,15.1,0.9,12.8,4.9,-4.7,81,65,39,29.88,29.77,5,2,11,0.00
2013-2-21,27.7,20.2,9.9,24.6,16.8,6.5,100,87,73,29.81,29.35,4,2,14,0.00
2013-2-22,36.5,27.5,24.1,33.5,26.5,21.9,100,96,85,29.36,29.24,3,1,11,0.09
2013-2-25,44.2,31.4,18.0,32.0,26.8,17.0,100,84,61,29.57,29.38,4,1,8,0.00
2013-2-26,36.3,32.4,29.8,31.0,29.6,28.1,99,90,76,29.37,29.10,8,3,17,0.00
2013-2-27,32.7,30.8,28.8,32.5,30.5,28.5,99,99,99,29.33,29.15,8,4,14,0.07
2013-2-28,39.2,31.2,26.6,32.3,29.2,26.4,100,93,75,29.57,29.33,8,4,14,0.02
2013-3-1,35.8,27.6,19.2,26.2,21.5,14.9,99,79,53,29.73,29.57,4,2,9,0.04
2013-3-2,36.0,19.1,5.9,19.5,11.4,3.7,95,74,46,29.74,29.65,4,1,6,0.00
2013-3-3,37.8,21.5,2.7,18.3,12.7,0.6,93,71,42,29.64,29.49,3,1,5,0.00
2013-3-4,34.9,28.1,22.5,27.8,24.0,16.4,99,85,69,29.50,29.35,6,3,14,0.02
2013-3-5,33.8,29.0,25.3,30.5,27.0,23.6,100,92,81,29.64,29.37,8,3,13,0.02
2013-3-6,29.8,22.0,5.4,23.4,18.3,3.5,96,86,69,29.82,29.65,8,3,15,0.01
2013-3-7,36.7,19.8,-1.3,24.5,16.4,-3.5,97,88,60,29.85,29.79,2,1,7,0.00
2013-3-8,45.7,31.5,16.9,34.1,27.3,16.7,100,86,62,29.83,29.63,4,2,11,0.00
2013-3-9,42.1,36.5,33.4,40.4,36.3,27.8,100,99,99,29.63,29.17,6,3,16,1.17
2013-3-10,43.9,37.0,32.2,39.7,36.8,24.2,99,99,99,29.20,29.01,4,1,14,0.66
2013-3-11,39.2,31.5,26.4,35.5,30.6,24.1,100,96,88,29.35,29.08,4,1,11,0.01
2013-3-12,38.5,27.8,22.6,33.2,23.8,18.1,100,85,62,29.60,29.35,11,2,21,0.00
2013-3-13,38.5,25.7,17.6,20.5,16.5,12.2,89,70,43,29.84,29.60,7,3,16,0.00
2013-3-14,52.3,34.4,19.4,35.8,27.5,15.4,97,78,53,29.79,29.53,7,1,17,0.00
2013-3-15,48.2,35.5,25.2,41.0,33.5,24.9,100,93,75,29.51,29.20,2,0,5,0.00
2013-3-16,34.3,31.9,26.1,33.4,29.7,21.6,100,92,82,29.63,29.24,11,3,18,0.00
2013-3-17,36.5,29.8,23.4,28.6,22.9,16.2,92,76,53,29.65,29.38,5,3,11,0.00
2013-3-18,35.8,24.8,16.9,35.5,19.9,10.1,100,82,73,29.37,29.14,6,1,17,0.08
2013-3-19,34.5,22.6,12.0,21.6,13.3,6.3,85,68,49,29.64,29.35,7,1,21,0.04
2013-3-20,28.6,18.7,10.6,12.6,7.7,2.9,75,62,47,29.68,29.56,10,5,23,0.00
2013-3-21,36.9,21.9,5.7,18.6,11.4,-7.1,89,66,39,29.58,29.47,4,1,11,0.00
2013-3-22,45.7,29.0,11.8,25.3,18.9,9.9,94,69,40,29.53,29.47,2,0,8,0.00
2013-3-23,47.3,34.6,21.0,36.2,25.2,19.6,100,72,42,29.58,29.47,2,0,9,0.00
2013-3-24,35.1,30.2,27.9,32.5,29.7,27.6,100,98,92,29.50,29.27,3,0,12,0.08
2013-3-25,38.7,31.9,27.5,29.6,27.2,23.2,100,84,65,29.64,29.34,7,2,19,0.06
2013-3-26,43.9,33.2,24.6,32.0,27.0,23.6,100,79,54,29.76,29.64,6,2,14,0.00
2013-3-27,51.8,36.2,22.3,36.8,26.3,22.1,100,72,37,29.81,29.73,2,0,8,0.00
2013-3-28,57.4,38.6,20.5,36.8,29.7,20.3,100,74,44,29.81,29.71,2,0,8,0.00
2013-3-29,63.9,44.5,25.5,42.0,34.1,25.2,100,71,40,29.77,29.63,3,0,8,0.00
2013-3-30,53.4,44.9,37.2,49.4,41.7,32.7,100,89,78,29.64,29.33,4,1,13,0.01
2013-3-31,54.5,40.9,31.6,44.8,34.4,23.4,100,80,52,29.48,29.19,12,3,22,0.01
2013-4-1,42.6,31.8,23.7,24.2,20.6,16.4,89,65,42,29.71,29.48,9,4,19,0.00
2013-4-2,48.2,32.8,18.7,32.2,20.6,16.7,96,65,34,29.80,29.71,8,2,19,0.00
2013-4-3,52.2,34.1,16.7,30.6,19.5,14.2,96,61,29,29.89,29.72,4,1,11,0.00
2013-4-4,66.2,44.5,3.0,44.6,31.2,-27.9,93,63,21,29.73,29.47,5,1,100,0.00
2013-4-5,57.0,44.1,26.8,35.0,31.2,26.6,100,65,37,29.68,29.43,4,1,15,0.00
2013-4-6,66.7,51.7,39.0,56.5,41.2,26.4,100,69,49,29.43,29.04,6,3,17,0.06
2013-4-7,69.1,51.1,33.6,48.8,43.0,33.4,100,77,47,29.43,29.21,7,2,14,0.00
2013-4-8,79.7,60.8,44.8,64.2,53.4,44.5,100,79,48,29.32,29.09,4,1,14,0.65
2013-4-9,66.7,49.1,42.3,56.8,48.8,37.1,99,99,99,29.36,29.21,5,2,16,1.00
2013-4-10,46.0,38.4,35.6,42.0,38.1,25.8,99,99,99,29.50,29.15,7,2,17,1.26
2013-4-11,52.0,40.8,36.0,48.5,40.6,35.7,99,99,99,29.19,29.03,4,1,12,0.30
2013-4-12,43.2,37.4,34.7,38.1,34.7,31.8,100,90,75,29.35,29.03,4,1,14,0.01
2013-4-13,54.9,41.0,32.0,38.0,33.8,15.1,100,77,51,29.44,29.35,5,1,13,0.00
2013-4-14,74.7,49.9,36.0,58.4,45.6,35.7,100,87,48,29.38,28.94,9,3,19,0.66
2013-4-15,62.4,46.5,39.0,52.0,41.9,33.1,99,85,59,29.49,29.06,4,1,15,0.04
2013-4-16,59.4,43.7,31.1,40.6,36.0,30.0,100,76,50,29.69,29.46,7,2,14,0.01
2013-4-17,51.3,43.8,39.4,47.0,41.9,34.5,100,93,69,29.70,29.20,7,2,22,2.15
2013-4-18,62.4,45.9,35.2,58.2,45.7,34.8,99,99,99,29.21,28.86,6,3,18,0.80
2013-4-19,39.9,35.3,31.1,35.1,31.2,27.3,100,86,69,29.48,29.02,5,3,19,0.01
2013-4-20,57.2,40.5,23.7,36.9,28.8,23.5,100,67,34,29.80,29.48,3,1,9,0.00
2013-4-21,62.6,48.7,37.9,48.0,39.3,29.6,82,70,57,29.82,29.62,8,4,20,0.00
2013-4-22,68.5,57.0,48.2,52.5,46.8,43.9,100,71,47,29.66,29.41,6,3,16,0.01
2013-4-23,52.5,40.6,35.6,52.5,36.7,30.1,100,86,72,29.52,29.41,10,5,20,0.01
2013-4-24,61.0,45.5,28.9,42.8,32.0,26.4,100,64,33,29.58,29.49,5,2,13,0.04
2013-4-25,65.7,47.8,32.2,42.6,32.1,23.7,100,59,28,29.74,29.52,6,1,17,0.00
2013-4-26,72.9,58.1,44.2,54.4,45.4,32.6,94,64,46,29.69,29.61,4,3,18,0.00
2013-4-27,70.7,58.6,43.7,57.2,50.1,43.4,100,76,52,29.69,29.44,5,1,11,0.00
2013-4-28,80.8,61.5,39.2,57.8,50.3,38.9,100,71,43,29.45,29.25,3,1,10,0.00
2013-4-29,85.5,67.6,52.5,68.6,60.4,52.3,100,80,56,29.31,29.09,7,2,13,0.00
2013-4-30,91.4,77.2,63.9,64.9,60.9,54.0,100,62,36,29.34,29.09,5,2,14,0.00
2013-5-1,80.1,63.0,44.8,62.0,53.0,41.2,96,72,49,29.66,29.33,10,3,25,0.00
2013-5-2,44.8,39.2,34.5,41.5,38.1,34.3,100,96,84,29.78,29.65,7,4,20,0.01
2013-5-3,43.3,37.1,33.6,42.5,36.9,30.0,99,99,99,29.72,29.39,5,2,15,0.00
2013-5-4,71.2,57.4,42.8,64.6,56.1,42.5,100,96,76,29.50,29.35,4,1,11,0.00
2013-5-5,79.7,64.1,49.6,66.1,55.9,48.4,99,78,42,29.51,29.44,3,1,10,0.02
2013-5-6,85.3,66.7,47.8,66.6,54.3,47.6,100,69,37,29.53,29.45,5,0,10,0.00
2013-5-7,85.8,67.1,45.7,65.9,53.2,45.4,100,67,36,29.52,29.44,2,0,8,0.00
2013-5-8,84.7,66.0,47.3,64.2,57.1,47.0,100,78,40,29.49,29.42,2,0,9,0.01
2013-5-9,71.2,63.2,59.5,71.3,62.8,59.3,100,99,87,29.42,29.26,2,0,8,0.00
2013-5-10,64.0,54.9,49.3,59.5,52.7,49.0,100,93,74,29.47,29.30,5,2,14,0.00
2013-5-11,58.8,52.0,38.1,52.3,37.5,23.3,99,62,31,29.60,29.37,15,5,28,5.81
2013-5-12,63.1,48.0,32.7,35.4,30.7,27.2,87,54,30,29.67,29.56,7,2,19,0.00
2013-5-13,75.2,56.9,30.7,49.2,41.2,29.7,100,61,31,29.63,29.34,4,1,11,0.00
2013-5-14,97.3,79.1,55.2,75.0,62.8,47.8,94,60,37,29.34,29.06,4,1,13,0.00
2013-5-15,86.7,74.5,61.7,60.7,53.9,46.7,68,50,32,29.36,29.12,8,1,14,0.00
2013-5-16,86.7,72.0,52.9,62.3,55.7,50.2,94,60,34,29.40,29.30,2,0,10,0.00
2013-5-17,84.6,73.0,61.5,73.8,65.1,58.5,100,78,57,29.44,29.33,4,1,14,0.00
2013-5-18,86.2,73.7,60.4,74.6,67.5,59.8,100,82,61,29.46,29.31,4,1,13,0.00
2013-5-19,85.3,74.4,64.0,79.3,71.3,63.6,100,91,66,29.34,29.04,7,2,26,0.01
2013-5-20,84.2,73.0,59.7,71.0,66.6,59.1,100,82,60,29.17,29.05,3,1,15,0.01
2013-5-21,77.7,68.5,58.3,70.0,63.0,58.0,100,84,60,29.16,29.06,2,1,9,0.00
2013-5-22,80.2,62.1,54.9,66.4,59.4,54.4,100,92,57,29.25,29.11,2,0,10,0.01
2013-5-23,73.4,60.5,48.7,58.7,53.0,43.5,100,79,45,29.73,29.24,4,2,15,0.00
2013-5-24,72.1,57.8,39.2,47.2,43.6,38.9,100,63,36,29.88,29.69,3,1,11,0.00
2013-5-25,59.7,52.1,47.8,53.2,50.6,46.2,100,95,63,29.81,29.67,3,1,11,0.05
2013-5-26,60.1,52.6,49.1,59.8,52.3,48.8,99,99,99,29.70,29.48,4,1,14,0.00
2013-5-27,72.3,62.0,56.1,72.1,61.7,55.9,99,99,97,29.50,29.24,4,1,11,0.00
2013-5-28,81.9,68.1,61.3,81.6,67.8,61.1,100,99,93,29.26,29.13,2,0,8,0.00
2013-5-29,84.6,72.8,62.1,79.8,70.7,61.8,100,93,77,29.34,29.20,4,1,17,0.00
2013-5-30,81.0,71.4,63.0,76.4,69.7,62.7,100,95,78,29.26,29.08,6,2,18,0.06
2013-5-31,80.4,70.1,61.9,73.3,66.7,61.6,100,90,70,29.21,29.12,3,1,11,0.08
2013-6-1,76.5,68.7,62.4,68.6,64.6,60.0,100,88,63,29.27,29.09,3,1,10,0.00
2013-6-2,70.0,58.7,48.9,62.3,52.4,47.2,100,81,53,29.51,29.27,8,3,17,0.00
2013-6-3,76.1,60.8,-12.8,63.7,50.3,-26.0,100,72,47,29.57,29.44,96,1,96,0.00
2013-6-4,68.0,61.1,54.5,63.3,56.7,50.3,100,86,66,29.63,29.48,2,0,9,0.01
2013-6-5,70.9,62.3,57.4,68.3,61.7,56.9,100,98,90,29.51,29.37,2,0,8,0.38
2013-6-6,72.0,63.1,57.2,68.0,62.0,3.0,100,96,74,29.42,29.34,3,0,122,0.00
2013-6-7,74.1,62.3,53.4,63.8,59.1,53.2,100,90,65,29.46,29.38,2,0,7,0.00
2013-6-8,81.0,67.4,52.0,69.9,59.9,51.7,100,79,55,29.42,29.34,2,0,8,0.00
2013-6-9,70.2,66.3,60.4,70.2,64.4,59.0,100,94,78,29.35,29.21,2,1,11,0.04
2013-6-10,84.4,67.9,56.7,72.5,64.8,56.4,100,91,63,29.35,29.22,2,0,8,0.00
2013-6-11,90.3,74.3,57.7,78.0,70.1,57.3,100,88,64,29.39,29.25,2,0,11,0.00
2013-6-12,92.7,79.7,68.9,83.7,76.2,68.6,100,90,72,29.35,29.07,4,1,17,0.07
2013-6-13,86.4,73.8,61.9,74.9,66.2,60.7,100,79,49,29.50,29.20,6,2,14,0.00
2013-6-14,80.1,70.3,59.5,67.7,64.0,38.3,100,82,62,29.58,29.35,4,1,10,0.30
2013-6-15,83.7,73.9,65.1,78.3,71.8,64.9,100,94,78,29.48,29.28,3,1,11,0.07
2013-6-16,92.8,77.6,66.6,82.1,66.7,56.8,99,73,35,29.42,29.37,2,0,8,0.00
2013-6-17,93.6,77.3,57.7,72.9,63.9,57.5,100,67,40,29.43,29.33,4,1,14,0.00
2013-6-18,86.9,73.2,61.5,67.2,63.9,61.3,100,75,51,29.51,29.37,2,0,9,0.00
2013-6-19,87.8,73.8,57.9,68.7,62.6,54.6,91,70,49,29.58,29.47,2,0,10,0.00
2013-6-20,92.1,78.9,62.6,75.0,69.2,61.5,100,74,53,29.56,29.44,4,1,14,0.00
2013-6-21,85.5,76.7,65.3,79.4,74.6,65.0,100,93,79,29.59,29.35,7,2,17,2.04
2013-6-22,93.6,81.8,69.8,85.2,79.0,69.5,100,92,76,29.48,29.32,5,1,14,0.12
2013-6-23,89.4,78.5,70.5,81.7,73.9,70.2,100,87,62,29.48,29.30,3,1,14,0.00
2013-6-24,74.8,69.3,66.9,74.4,69.0,66.5,100,99,97,29.50,29.31,3,0,11,1.31
2013-6-25,89.2,78.2,68.0,85.8,77.0,67.6,100,96,84,29.36,29.21,3,0,10,0.06
2013-6-26,95.5,77.2,58.3,88.5,76.2,58.0,100,97,78,29.27,29.15,9,0,24,1.54
2013-6-27,96.8,80.1,68.2,83.6,73.9,66.9,99,82,61,29.34,29.26,3,1,15,0.00
2013-6-28,87.1,75.9,67.8,72.5,67.3,64.2,100,76,59,29.31,29.18,8,3,20,0.01
2013-6-29,77.7,68.5,63.9,73.2,67.5,63.6,100,97,79,29.32,29.15,6,2,14,0.31
2013-6-30,82.8,69.7,59.2,68.5,63.2,58.6,100,82,56,29.52,29.32,4,2,14,0.00
2013-7-1,84.6,70.1,54.5,65.4,60.1,54.2,100,74,47,29.58,29.51,4,1,14,0.00
2013-7-2,88.5,72.3,54.5,70.2,62.9,54.2,100,75,46,29.58,29.48,2,0,7,0.00
2013-7-3,87.6,71.3,54.0,70.4,60.8,53.7,99,73,44,29.55,29.47,1,0,6,0.00
2013-7-4,90.0,74.0,57.0,76.9,65.2,56.8,100,77,49,29.52,29.44,2,0,8,0.00
2013-7-5,90.0,77.1,62.6,77.0,69.2,62.3,100,79,54,29.51,29.42,3,1,14,0.00
2013-7-6,91.6,79.0,64.9,80.5,72.5,64.7,100,82,60,29.48,29.37,3,1,11,0.00
2013-7-7,92.3,81.2,68.4,81.6,75.8,68.1,100,85,66,29.43,29.35,3,0,11,0.00
2013-7-8,97.2,85.1,75.7,85.4,80.0,74.2,100,85,66,29.44,29.36,1,0,8,0.00
2013-7-9,95.4,80.6,72.3,88.4,79.5,71.9,100,97,78,29.46,29.33,3,0,11,0.79
2013-7-10,84.0,76.2,63.0,79.8,70.0,62.7,100,83,55,29.51,29.35,5,2,13,0.00
2013-7-11,90.7,73.5,57.2,76.1,65.5,56.9,99,79,48,29.59,29.51,1,0,8,0.00
2013-7-12,86.4,73.2,57.4,70.5,64.3,57.1,100,77,52,29.60,29.51,3,1,11,0.00
2013-7-13,80.8,70.6,61.5,74.7,68.1,61.3,100,92,75,29.60,29.52,2,0,7,0.00
2013-7-14,89.4,76.4,61.0,79.4,70.2,60.7,100,83,57,29.66,29.57,3,1,10,0.00
2013-7-15,95.5,81.8,67.5,87.4,77.8,67.2,100,88,71,29.71,29.63,3,0,9,0.00
2013-7-16,96.6,85.1,73.0,88.7,80.7,72.8,100,88,68,29.74,29.68,2,0,8,0.00
2013-7-17,101.8,86.3,74.3,88.9,80.8,73.9,100,85,64,29.77,29.65,1,0,6,0.00
2013-7-18,98.8,86.6,73.4,87.9,79.6,73.0,99,81,60,29.65,29.40,2,0,10,0.00
2013-7-19,96.6,85.4,72.5,84.8,77.6,71.1,96,78,61,29.41,29.26,3,1,11,0.00
2013-7-20,96.1,77.3,60.6,77.6,70.6,60.2,100,82,53,29.42,29.33,3,0,7,0.00
2013-7-21,87.4,75.2,64.2,78.8,72.1,64.0,100,91,70,29.40,29.29,2,0,10,0.00
2013-7-22,93.6,75.0,60.8,84.5,72.4,60.5,100,92,70,29.35,29.19,9,1,30,0.44
2013-7-23,82.8,71.3,60.8,70.1,65.6,60.5,100,84,57,29.46,29.24,5,2,12,0.00
2013-7-24,83.7,68.7,53.8,72.0,62.3,53.5,100,82,57,29.54,29.45,1,0,6,0.00
2013-7-25,87.3,73.9,58.8,75.0,67.7,58.6,99,83,62,29.55,29.45,2,0,10,0.85
2013-7-26,82.8,70.3,61.3,81.6,66.4,61.1,100,88,61,29.53,29.40,7,2,18,0.27
2013-7-27,68.2,60.3,52.9,61.1,54.9,51.2,100,84,61,29.49,29.42,6,2,14,0.00
2013-7-28,74.5,63.2,54.0,61.2,56.6,53.6,100,80,59,29.52,29.38,4,1,14,0.00
2013-7-29,86.4,66.9,48.7,71.9,59.5,48.3,100,79,53,29.61,29.52,2,0,10,0.00
2013-7-30,68.7,66.3,64.6,68.5,65.6,62.2,100,97,92,29.58,29.51,2,0,8,0.00
2013-7-31,85.3,72.7,64.4,77.1,69.7,64.1,100,91,70,29.55,29.46,3,1,11,0.00
2013-8-1,87.4,73.4,59.0,74.7,66.8,58.7,100,82,56,29.53,29.36,3,0,9,0.00
2013-8-2,90.9,74.7,64.6,79.3,70.6,64.3,100,88,63,29.46,29.33,3,1,10,0.05
2013-8-3,88.3,70.5,55.9,74.0,62.9,55.7,100,79,53,29.63,29.46,3,1,9,0.01
2013-8-4,87.6,70.5,52.7,72.1,61.4,52.4,99,76,50,29.67,29.54,2,0,8,0.00
2013-8-5,80.4,68.7,60.8,78.2,68.2,60.5,100,98,92,29.54,29.31,5,1,14,0.85
2013-8-6,91.2,78.1,65.7,86.1,75.9,65.4,100,93,74,29.35,29.25,3,0,13,0.00
2013-8-7,88.3,75.1,62.1,81.3,71.7,61.6,100,90,72,29.45,29.24,6,1,15,0.00
2013-8-8,84.9,71.8,56.8,75.0,66.9,56.6,100,86,61,29.50,29.43,2,0,7,0.00
2013-8-9,86.9,72.3,61.0,80.9,68.1,60.5,100,88,68,29.57,29.45,3,1,11,0.00
2013-8-10,88.9,71.3,55.9,73.7,64.1,55.7,100,80,51,29.65,29.57,3,0,8,0.00
2013-8-11,86.7,75.6,64.0,75.7,70.3,63.8,100,85,66,29.60,29.46,2,0,11,0.00
2013-8-12,83.5,72.9,62.1,76.2,69.0,61.8,100,89,61,29.50,29.41,4,1,12,0.01
2013-8-13,77.4,66.5,53.8,70.2,59.9,53.3,100,82,51,29.64,29.47,2,1,11,0.00
2013-8-14,86.7,64.8,46.9,69.9,55.6,46.7,100,76,45,29.69,29.59,2,0,5,0.00
2013-8-15,79.0,67.0,55.9,67.4,60.2,55.3,100,81,50,29.63,29.55,2,0,8,0.00
2013-8-16,84.0,67.9,49.6,70.7,60.7,49.4,100,81,53,29.66,29.60,2,0,6,0.00
2013-8-17,86.4,70.1,52.0,73.3,62.0,51.7,100,78,52,29.69,29.60,2,0,8,0.00
2013-8-18,87.4,70.4,52.7,75.0,63.1,52.4,100,80,54,29.67,29.55,2,0,9,0.00
2013-8-19,86.4,72.9,57.9,76.7,67.8,57.7,100,86,61,29.57,29.47,3,0,9,0.00
2013-8-20,90.1,77.3,64.4,79.3,72.1,64.1,100,85,65,29.52,29.43,3,1,13,0.00
2013-8-21,93.6,80.3,69.8,80.7,76.0,69.5,100,88,65,29.50,29.41,4,1,12,0.00
2013-8-22,82.0,74.8,66.6,78.5,73.7,66.1,100,96,83,29.58,29.46,2,0,10,0.02
2013-8-23,86.0,74.1,59.5,80.0,69.6,59.3,99,87,68,29.62,29.54,2,1,10,0.00
2013-8-24,90.0,77.0,64.4,82.2,74.0,64.1,100,91,77,29.67,29.57,4,1,11,0.00
2013-8-25,93.4,82.2,70.9,81.5,75.7,70.0,99,82,57,29.66,29.55,3,1,11,0.00
2013-8-26,98.4,84.9,69.8,85.0,78.0,69.5,100,81,59,29.59,29.43,2,0,9,0.00
2013-8-27,98.6,87.8,74.3,83.5,79.3,74.1,100,77,59,29.44,29.31,3,1,11,0.00
2013-8-28,98.1,85.3,75.7,89.2,81.9,75.4,100,90,66,29.48,29.36,2,0,6,0.00
2013-8-29,94.5,83.6,72.7,85.7,80.2,72.4,100,90,69,29.51,29.40,2,1,8,0.00
2013-8-30,101.1,87.7,73.9,91.3,81.1,73.5,100,83,54,29.41,29.24,2,0,8,0.00
2013-8-31,88.3,78.1,69.1,80.5,76.0,68.8,100,94,76,29.32,29.24,2,0,9,0.00
2013-9-1,88.9,76.2,64.6,84.4,71.3,64.1,100,86,57,29.38,29.23,5,2,14,0.00
2013-9-2,76.5,66.0,52.7,67.9,61.0,52.3,100,85,62,29.50,29.37,4,1,13,0.00
2013-9-3,83.1,64.5,46.6,69.5,57.4,46.3,100,81,47,29.57,29.48,1,0,6,0.00
2013-9-4,90.9,72.5,50.0,75.6,65.3,49.7,100,81,53,29.60,29.51,2,0,8,0.00
2013-9-5,92.3,77.4,62.8,80.8,72.7,62.3,100,87,67,29.65,29.57,1,0,6,0.00
2013-9-6,93.2,76.9,60.1,75.6,68.5,59.8,100,78,53,29.64,29.43,3,1,10,0.00
2013-9-7,98.2,80.7,68.0,82.1,74.8,66.1,100,84,59,29.44,29.31,2,0,8,0.00
2013-9-8,84.4,76.1,71.2,79.3,75.0,71.0,100,96,84,29.47,29.33,2,1,10,0.00
2013-9-9,101.8,85.6,68.0,88.0,75.3,67.7,100,74,48,29.36,29.24,3,1,11,0.00
2013-9-10,100.0,88.1,76.8,78.1,72.8,68.5,81,62,44,29.45,29.33,3,1,15,0.00
2013-9-11,90.0,76.9,68.2,78.7,72.8,67.9,100,88,64,29.55,29.45,3,0,10,0.00
2013-9-12,78.1,68.2,55.0,68.5,59.2,52.0,100,76,46,29.62,29.49,7,2,18,0.00
2013-9-13,74.8,59.8,44.4,58.5,49.8,44.2,100,73,43,29.71,29.58,3,0,8,0.00
2013-9-14,77.4,61.0,42.1,56.8,49.2,41.8,100,69,42,29.62,29.41,3,1,11,0.00
2013-9-15,65.5,59.4,52.2,65.2,57.9,51.9,100,95,67,29.67,29.38,3,1,11,0.00
2013-9-16,70.7,58.7,49.6,60.1,54.7,49.4,100,88,66,29.83,29.67,2,0,10,0.00
2013-9-17,67.8,59.5,48.7,66.4,58.0,48.5,100,95,83,29.76,29.49,2,1,9,0.00
2013-9-18,89.1,72.3,62.2,80.8,70.4,62.0,100,94,74,29.50,29.26,3,1,11,0.00
2013-9-19,91.9,77.4,66.2,81.1,74.0,64.9,100,90,65,29.31,29.16,5,1,15,0.00
2013-9-20,67.8,62.9,54.7,66.8,60.5,54.4,100,92,79,29.39,29.27,3,1,12,0.00
2013-9-21,71.6,57.8,46.6,59.2,52.6,46.3,100,85,58,29.45,29.36,3,1,10,0.00
2013-9-22,77.4,59.4,43.2,62.3,52.9,42.9,99,81,56,29.50,29.39,2,0,8,0.00
2013-9-23,77.4,61.4,47.5,60.4,54.6,47.2,100,81,53,29.50,29.38,3,1,11,0.00
2013-9-24,78.6,62.6,49.6,63.4,56.6,49.4,100,83,55,29.43,29.34,2,0,9,0.00
2013-9-25,82.4,65.0,48.7,67.6,57.6,48.5,100,79,53,29.43,29.34,1,0,6,0.00
2013-9-26,85.5,68.0,54.0,70.9,61.5,53.7,100,82,58,29.46,29.38,4,1,13,0.00
2013-9-28,76.1,64.4,52.0,70.1,61.5,51.7,99,91,74,29.48,29.31,4,2,12,0.00
2013-9-29,77.2,58.5,40.6,72.2,51.8,40.4,99,81,49,29.54,29.42,2,0,4,0.00
2013-9-30,77.5,61.7,44.2,62.6,54.3,44.0,100,80,52,29.42,29.25,4,1,9,0.00
2013-10-1,85.1,70.2,56.8,72.6,64.2,55.4,99,83,59,29.44,29.29,3,1,7,0.00
2013-10-2,84.4,68.8,49.6,69.5,59.3,49.4,100,76,40,29.53,29.36,2,0,7,0.00
2013-10-3,82.0,71.4,62.8,77.7,70.2,62.5,99,96,83,29.36,29.25,3,0,6,0.00
2013-10-4,77.2,70.8,62.1,76.2,70.5,61.8,99,99,99,29.42,29.26,11,1,18,0.13
2013-10-5,71.8,63.6,44.1,71.5,60.3,42.3,100,90,64,29.35,29.25,2,0,8,0.00
2013-10-6,59.7,46.8,41.0,55.1,45.1,40.7,100,94,73,29.28,29.18,1,0,5,0.00
2013-10-7,76.6,58.9,43.7,64.7,51.5,43.4,100,80,42,29.51,29.27,4,1,11,0.00
2013-10-8,80.2,61.0,42.6,65.4,51.1,42.4,99,74,42,29.57,29.48,3,1,12,0.00
2013-10-9,77.2,59.7,45.5,62.4,51.7,45.2,100,78,47,29.62,29.53,3,1,9,0.00
2013-10-10,77.5,59.1,40.8,64.0,53.0,40.6,100,83,57,29.59,29.43,3,0,10,0.00
2013-10-11,77.4,65.9,50.7,67.9,59.6,50.5,99,82,62,29.43,29.28,5,2,17,0.00
2013-10-12,71.2,61.8,46.4,65.5,50.3,37.9,100,68,44,29.67,29.29,3,1,12,0.00
2013-10-13,72.9,50.2,33.6,54.4,38.8,33.4,100,69,37,29.89,29.66,2,0,8,0.00
2013-10-14,66.0,51.2,32.0,52.8,42.2,31.8,100,74,52,29.84,29.44,5,1,13,0.00
2013-10-15,61.5,55.8,50.0,60.0,51.8,44.5,100,87,68,29.44,29.27,3,2,14,0.01
2013-10-16,51.8,48.7,46.8,51.1,48.4,46.5,100,99,94,29.43,29.32,3,1,10,0.00
2013-10-17,63.0,50.6,41.2,53.2,44.6,39.3,99,82,50,29.41,29.27,2,0,9,0.00
2013-10-18,54.5,46.4,42.6,45.2,40.6,35.3,100,81,56,29.46,29.32,4,1,14,0.00
2013-10-19,61.7,45.4,37.8,47.0,39.7,34.1,100,82,56,29.40,29.23,4,0,13,0.00
2013-10-20,60.1,43.5,34.0,52.2,40.6,33.7,100,90,72,29.31,29.16,3,1,10,0.00
2013-11-12,34.3,20.7,10.9,19.9,14.1,10.0,96,77,51,30.23,30.05,7,1,9,0.00
2013-11-13,49.5,33.1,16.7,24.1,18.5,13.8,90,59,33,30.03,29.53,3,1,8,0.00
2013-11-14,54.5,41.9,32.7,34.7,29.6,21.9,75,62,47,29.52,29.35,3,1,8,0.00
2013-11-15,65.3,47.0,30.4,44.6,37.0,28.3,96,70,47,29.39,29.26,3,1,7,0.00
2013-11-16,60.8,49.0,39.6,60.5,48.5,38.1,100,98,91,29.26,28.88,7,3,13,0.01
2013-11-17,56.7,49.0,40.1,56.4,48.5,39.8,100,99,90,29.32,28.74,8,2,16,0.00
2013-11-18,46.8,30.9,22.5,38.9,28.4,22.2,100,91,62,29.74,29.34,8,1,14,0.00
2013-11-19,48.0,33.8,19.6,35.5,29.0,19.4,100,84,60,29.76,29.59,5,2,13,0.00
2013-11-20,39.2,37.1,35.4,37.9,34.6,31.8,100,91,80,29.59,29.44,7,3,17,0.00
2013-11-21,43.5,36.8,30.9,43.3,36.6,30.7,99,99,99,29.77,29.50,6,2,16,0.00
2013-11-22,37.2,27.2,16.0,31.8,24.9,13.6,99,91,74,30.01,29.77,8,3,18,0.00
2013-11-23,23.0,15.5,5.7,18.7,10.1,3.2,95,80,60,30.21,29.95,8,4,27,0.00
2013-11-24,32.7,18.4,4.6,15.1,9.3,3.5,100,70,41,30.18,29.74,3,1,9,0.00
2013-11-25,39.0,28.9,22.1,31.6,25.8,13.9,100,89,67,29.74,29.51,3,1,11,0.00
2013-11-26,31.3,27.8,24.3,28.4,22.6,11.1,100,82,55,29.65,29.52,10,4,25,0.00
2013-11-27,18.5,18.4,18.3,12.3,12.2,12.1,76,76,76,29.63,29.63,0,0,4,0.00
2013-11-28,34.7,22.0,10.0,23.2,16.5,8.0,97,80,61,29.95,29.53,8,1,14,0.00
2013-11-29,36.1,22.7,5.9,25.8,18.0,5.5,100,84,62,30.00,29.74,4,1,11,0.00
2013-11-30,54.0,35.8,24.4,39.6,30.7,23.6,100,84,57,29.74,29.49,3,1,9,0.00
2013-12-1,50.5,35.6,23.0,39.4,32.1,22.6,100,88,60,29.60,29.39,2,0,7,0.00
2013-12-2,42.1,36.6,30.0,40.6,36.1,29.8,100,98,91,29.40,29.09,3,1,13,0.00
2013-12-3,45.7,39.7,36.5,45.4,39.4,36.1,99,99,99,29.12,29.02,3,1,9,0.00
2013-12-4,57.2,39.4,23.4,49.6,39.1,23.1,99,99,99,29.29,28.90,4,1,15,0.00
2013-12-5,23.4,16.9,10.4,23.1,12.8,6.1,100,84,69,29.80,29.28,0,0,0,0.00
2013-12-6,17.8,9.4,4.1,6.9,3.8,-0.3,87,78,61,30.06,29.78,0,0,0,0.00
2013-12-7,18.5,7.4,-2.2,6.7,0.6,-4.8,89,74,50,30.18,30.01,0,0,0,0.00
2013-12-8,21.0,16.6,10.9,20.8,13.0,4.2,100,86,69,30.01,29.45,3,1,11,0.00
2013-12-13,33.4,20.0,6.3,24.2,17.4,5.8,100,90,66,29.61,29.47,3,1,5,0.00
2013-12-14,25.5,20.6,13.5,23.0,19.5,11.5,99,96,90,29.54,29.49,4,2,10,0.00
2013-12-15,14.9,10.8,6.4,12.4,6.4,2.0,96,83,68,29.57,29.51,5,1,9,0.00
2013-12-16,21.2,16.1,10.9,21.0,14.9,9.9,100,95,87,29.55,29.43,2,1,6,0.00
2013-12-17,42.4,26.2,13.8,34.2,21.9,13.6,99,85,61,29.62,29.46,5,2,12,0.00
2013-12-18,45.7,28.1,14.7,33.4,23.1,13.7,100,84,56,29.60,29.22,4,1,11,0.00
2013-12-19,37.6,29.4,20.1,34.7,28.8,19.9,99,98,85,29.34,29.23,3,1,6,0.00
2013-12-20,31.3,25.7,23.4,31.0,25.5,23.1,99,99,99,29.32,29.23,4,1,14,0.00
2013-12-28,43.3,40.4,34.7,36.2,35.1,31.5,89,82,74,29.28,29.25,2,1,11,0.00
2013-12-29,35.8,13.2,-5.4,33.9,10.1,-10.0,100,87,73,29.75,29.25,10,6,25,0.00
2013-12-30,7.7,-0.8,-10.1,4.1,-4.3,-13.0,94,85,61,29.76,29.62,3,0,8,0.00
2013-12-31,10.8,2.8,-11.4,7.4,0.3,-13.3,97,89,77,29.78,29.65,2,0,8,0.00
2014-1-1,11.5,8.5,4.6,9.9,6.0,3.6,96,89,81,29.75,29.67,3,1,13,0.00
2014-1-2,15.3,4.7,-9.4,6.0,0.0,-11.8,90,80,65,29.90,29.71,6,2,15,0.00